EW1895 Weather Reports


Display with metric or nautical units.
time (UTC)temp
F
wind
direction
speed
MPH
gust
MPH
rain 1hr
in
rain 24hr
in
rain mn
in
humidity
%
barometer
mb
20260906153016 81 24 0.0 3.0 0.00 0.00 0.00 64 1015.5
20260906151512 80 117 0.0 2.0 0.00 0.00 0.00 64 1015.4
20260906150021 79 262 0.0 2.0 0.00 0.00 0.00 64 1015.3
20260906144511 78 246 0.0 2.0 0.00 0.00 0.00 67 1015.2
20260906143003 77 245 0.0 2.0 0.00 0.00 0.00 71 1015.1
20260906141600 76 129 0.0 2.0 0.00 0.00 0.00 78 1015.0
20260906140055 74 148 0.0 3.0 0.00 0.00 0.00 82 1015.1
20260906134552 73 335 0.0 5.0 0.00 0.00 0.00 84 1015.0
20260906133051 71 327 0.0 2.0 0.00 0.00 0.00 89 1014.9
20260906131546 70 327 0.0 1.0 0.00 0.00 0.00 93 1014.7
20260906130043 69 327 0.0 0.0 0.00 0.00 0.00 95 1014.7
20260906053018 71 324 0.0 0.0 0.00 0.00 0.00 96 1012.4
20260906051518 71 324 0.0 0.0 0.00 0.00 0.00 96 1012.5
20260906050018 70 324 0.0 0.0 0.00 0.00 0.00 96 1012.6
20260906044517 70 324 0.0 0.0 0.00 0.00 0.00 96 1012.7
20260906043025 70 324 0.0 0.0 0.00 0.00 0.00 96 1012.7
20260906041517 70 324 0.0 0.0 0.00 0.00 0.00 95 1012.6
20260906040022 70 324 0.0 0.0 0.00 0.00 0.00 95 1012.5
20260906034529 70 324 0.0 0.0 0.00 0.00 0.00 95 1012.5
20260906033024 70 324 0.0 0.0 0.00 0.00 0.00 95 1012.6
20260906031518 70 324 0.0 0.0 0.00 0.00 0.00 95 1012.5
20260906030015 71 324 0.0 0.0 0.00 0.00 0.00 95 1012.4
20260906024514 71 324 0.0 0.0 0.00 0.00 0.00 94 1012.3
20260906023015 71 324 0.0 0.0 0.00 0.00 0.00 95 1012.4
20260906021513 71 324 0.0 0.0 0.00 0.00 0.00 94 1012.4
20260906020012 72 324 0.0 0.0 0.00 0.00 0.00 94 1012.6
20260906014525 72 324 0.0 0.0 0.00 0.00 0.00 94 1012.4
20260906013015 72 324 0.0 0.0 0.00 0.00 0.00 94 1012.2
20260906011517 73 324 0.0 0.0 0.00 0.00 0.00 94 1012.1
20260906010011 73 324 0.0 0.0 0.00 0.00 0.00 94 1011.9
20260906004514 73 324 0.0 0.0 0.00 0.00 0.00 94 1011.5
20260906003011 73 324 0.0 0.0 0.00 0.00 0.00 94 1011.4
20260906001510 74 324 0.0 0.0 0.00 0.00 0.00 93 1011.2
20260906000010 74 324 0.0 0.0 0.00 0.00 0.00 93 1011.0
20260905234510 74 324 0.0 0.0 0.00 0.00 0.00 93 1010.8
20260905233010 75 324 0.0 0.0 0.00 0.00 0.00 93 1010.8
20260905231509 75 324 0.0 0.0 0.00 0.00 0.00 92 1010.7
20260905230012 76 324 0.0 0.0 0.00 0.00 0.00 91 1011.0
20260905224523 76 324 0.0 0.0 0.00 0.00 0.00 90 1010.9
20260905223008 77 324 0.0 0.0 0.00 0.00 0.00 88 1011.1
20260905221508 77 324 0.0 0.0 0.00 0.00 0.00 87 1011.0
20260905220008 77 324 0.0 0.0 0.00 0.00 0.00 86 1010.7
20260905214506 77 324 0.0 0.0 0.00 0.00 0.00 87 1010.8
20260905213005 78 324 0.0 0.0 0.00 0.00 0.00 84 1010.8
20260905211504 78 324 0.0 0.0 0.00 0.00 0.00 83 1010.8
20260905210010 78 324 0.0 0.0 0.00 0.00 0.00 85 1010.8
20260905204503 78 324 0.0 0.0 0.00 0.00 0.00 86 1010.8
20260905203003 78 324 0.0 0.0 0.00 0.00 0.00 84 1010.8
20260905201503 77 324 0.0 0.0 0.00 0.00 0.00 87 1010.9
20260905200002 76 324 0.0 0.0 0.00 0.00 0.00 92 1010.8
20260905194502 75 324 0.0 0.0 0.00 0.00 0.00 94 1010.9
20260905193109 75 324 0.0 0.0 0.00 0.00 0.00 94 1011.1
20260905191600 75 324 0.0 0.0 0.00 0.00 0.00 95 1011.6
20260905184558 74 324 0.0 0.0 0.00 0.00 0.00 95 1012.2
20260905183059 74 324 0.0 0.0 0.00 0.00 0.00 95 1012.2
20260905181601 74 324 0.0 0.0 0.00 0.00 0.00 94 1011.7
20260905180101 74 324 0.0 0.0 0.00 0.00 0.00 95 1011.3
20260905174557 74 324 0.0 1.0 0.00 0.00 0.00 95 1011.6
20260905173057 72 338 0.0 1.0 0.00 0.00 0.00 95 1011.5
20260905171556 71 341 0.0 0.0 0.00 0.00 0.00 94 1011.4
20260905170059 71 340 0.0 0.0 0.00 0.00 0.00 93 1012.4
20260905164535 71 340 0.0 0.0 0.00 0.00 0.00 92 1013.1
20260905163036 73 340 0.0 7.0 0.00 0.00 0.00 89 1013.5
20260905161556 78 325 1.0 7.0 0.00 0.00 0.00 86 1014.0
20260905160055 79 321 0.0 0.0 0.00 0.00 0.00 84 1013.0
20260905154556 80 319 0.0 0.0 0.00 0.00 0.00 84 1012.4